Overview Statistics Trail Chart Weather Telemetry Raw packets
 

This is the latest recevied weather packets stored in our database for station/object KB2EAR-13. If no packets are shown the sender has not sent any weather packets the latest 10 day(s).

<< 82 83 84 85 86 87 88 >>
Time Temp. Humidity Pressure Rain* Wind** Luminosity Snow
1788050118 18.89° C 77% 1022.9 hPa 0 mm - - -
1788049818 19.44° C 76% 1022.9 hPa 0 mm - - -
1788049517 19.44° C 75% 1022.9 hPa 0 mm - - -
1788049218 20° C 74% 1022.9 hPa 0 mm - - -
1788048918 20° C 73% 1022.8 hPa 0 mm - - -
1788048618 20.56° C 72% 1022.9 hPa 0 mm - - -
1788048318 20.56° C 72% 1023.1 hPa 0 mm - - -
1788048018 21.11° C 70% 1023.1 hPa 0 mm - - -
1788047718 21.67° C 70% 1023.1 hPa 0 mm - - -
1788047427 21.67° C 69% 1023.3 hPa 0 mm - - -
1788047117 22.22° C 66% 1023.3 hPa 0 mm - - -
1788046818 22.78° C 65% 1023.2 hPa 0 mm - - -
1788046517 23.33° C 64% 1023.3 hPa 0 mm - - -
1788046218 23.89° C 60% 1023.2 hPa 0 mm - - -
1788045917 24.44° C 57% 1023.3 hPa 0 mm - - -
1788045618 25° C 56% 1023.2 hPa 0 mm - - -
1788045318 25° C 54% 1023.4 hPa 0 mm - - -
1788045018 25° C 54% 1023.4 hPa 0 mm - - -
1788044718 24.44° C 55% 1023.4 hPa 0 mm - - -
1788044417 24.44° C 54% - 0 mm - - -
1788044117 24.44° C 54% - 0 mm - - -
1788043818 24.44° C 54% - 0 mm - - -
1788043518 24.44° C 53% - 0 mm - - -
1788043218 24.44° C 53% - 0 mm - - -
1788042917 24.44° C 52% - 0 mm - - -

* Rain latest hour (hover to see other rain measurements)
** Current wind speed in m/s (hover to see current wind gust speed)